Please be sure to check the latest weather conditions by clicking the link and viewing our local weather information!

Check Weather

Welcome to Lakeway Airpark (3R9)

FromTheAir

We’re a community airpark nestled within the town of Lakeway, Texas (17 miles northwest of downtown Austin).

Lakeway Airpark, Inc. was formed by Lakeway residents and interested parties to own and manage Lakeway Airpark (3R9).

The Airpark is a privately owned not for profit public use airport for residents and guests of Lakeway. No public funds are used and the airport is supported by fees and fuel sales at the airport.

Lakeway Airpark is an unmanned facility open for use from Sunrise to Sunset seven days a week. Takeoffs and landings are not permitted at night, between Sunset and Sunrise, by City Ordinance.

Quick Weather Info

Available data for KAUS from the past 2 hours

METAR
KAUS 021356Z 19011G17KT 8SM SCT012 BKN027 OVC036 27/24 A2986 RMK AO2 T02670239
KAUS 021353Z 19010G17KT 10SM SCT012 BKN030 OVC036 27/24 A2986 RMK AO2 SLP101 T02670239
KAUS 021253Z 19011KT 10SM FEW017 BKN030 26/23 A2985 RMK AO2 SLP097 T02610233
TAF
KAUS 021139Z 0212/0318 19007KT P6SM BKN018 FM021400 19010KT P6SM BKN025 FM021600 19014KT P6SM SCT050 FM030300 21006KT P6SM -SHRA SCT025 BKN040 TEMPO 0303/0305 VRB25G35KT 2SM +TSRA BKN025CB FM030500 36010KT 6SM -TSRA SCT025 BKN040CB FM030800 01013KT P6SM SCT050 SCT080